Regional Weather Roundup
Issued by NWS Raleigh/Durham, NC

Home | Current Version | Previous Version | Text Only | Print | Product List | Glossary On
Versions: 1 2 3 4 5 6 7 8 9 10 11 12 13 14 15 16 17 18 19 20 21 22 23 24 25 26 27 28
000
ASUS42 KRAH 282010
RWRRAH
NORTH CAROLINA WEATHER ROUNDUP
NATIONAL WEATHER SERVICE RALEIGH NC
400 PM EDT FRI APR 28 2017

NOTE: "FAIR" INDICATES FEW OR NO CLOUDS BELOW 12,000 FEET WITH NO
SIGNIFICANT WEATHER AND/OR OBSTRUCTIONS TO VISIBILITY.

NCZ001-053-055-056-065-067-282100-
WESTERN NORTH CAROLINA

CITY           SKY/WX    TMP DP  RH WIND       PRES   REMARKS
ASHEVILLE      SUNNY     78  59  51 S17       30.09
JEFFERSON      MOSUNNY   73  59  63 SE6G20    30.13
HICKORY        NOT AVBL
RUTHERFORDTON  NOT AVBL
MOUNT AIRY     NOT AVBL
BOONE          NOT AVBL
$$

NCZ021-022-025-041-071-084-088-282100-
CENTRAL NORTH CAROLINA

CITY           SKY/WX    TMP DP  RH WIND       PRES   REMARKS
CHARLOTTE      MOSUNNY   84  65  52 SW12      30.06F
GREENSBORO     MOSUNNY   83  67  58 S16       30.05F
WINSTON-SALEM  MOSUNNY   82  61  48 S8        30.06F
RALEIGH-DURHAM PTSUNNY   86  68  54 SW14      30.05F
FORT BRAGG     MOSUNNY   89  63  41 SW12      30.04F
FAYETTEVILLE   MOSUNNY   91  67  44 S13       30.04F
BURLINGTON     MOSUNNY   85  67  54 SW12      30.05F
LAURINBURG     MOSUNNY   89  69  51 SW9       30.05F
$$

NCZ011-015-027-028-043-044-047-080-103-282100-
NORTHEASTERN NORTH CAROLINA

CITY           SKY/WX    TMP DP  RH WIND       PRES   REMARKS
ROCKY MT-WILSO MOSUNNY   86  69  56 SW13      30.05F
GREENVILLE     MOSUNNY   88  70  55 SW8       30.07F
WASHINGTON     MOSUNNY   87  70  57 SW9       30.06S
ELIZABETH CITY SUNNY     86  73  65 S13       30.05F
MANTEO         PTSUNNY   80  72  77 S16       30.07F
CAPE HATTERAS  CLOUDY    80  72  76 SW13      30.11F HAZE
$$

NCZ078-087-090-091-093-098-101-282100-
SOUTHEASTERN NORTH CAROLINA

CITY           SKY/WX    TMP DP  RH WIND       PRES   REMARKS
LUMBERTON      MOSUNNY   87  68  52 SW12      30.05F
GOLDSBORO      MOSUNNY   89  69  51 S8        30.04F
KINSTON        MOSUNNY   90  66  45 SW13      30.07S
KENANSVILLE    PTSUNNY   86  70  58 S5        30.06F
NEW BERN       MOSUNNY   87  75  67 S12       30.08F HX  96
CHERRY POINT   NOT AVBL
BEAUFORT       FOG       79  75  87 S16       30.11F VSB<1/4
JACKSONVILLE   MOSUNNY   84  76  76 S14G23    30.08S
WILMINGTON     PTSUNNY   84  74  71 SW15G23   30.09F
$$





USA.gov is the U.S. government's official web portal to all federal, state and local government web resources and services.